VOE832R LFRS-LFKJ

Flight info

Callsign VOE832R
Flight time 1h 33m
Altitude 39000
Route LUGEN UM184 TUPAR DCT DIDRU DCT ADATU DCT LERGA DCT TOZOT DCT OTROT DCT RETNO DCT KOLON DCT OMARD M623 VAREK
Aircraft A319/M-SDE3FGHIRWY/LB1

Departure

Time 2026-05-06 12:53
Airport Nantes Atlantique Airport (LFRS)

Arrival

Time 2026-05-06 14:27
Airport Ajaccio Napoléon Bonaparte airport (LFKJ)
Time Latitude Longitude Altitude Speed Heading
2026-05-06 12:36 47.15689 -1.60210 84 ft 0 kts 35°
2026-05-06 12:42 47.15689 -1.60211 84 ft 0 kts 35°
2026-05-06 12:42 47.15686 -1.60214 84 ft 2 kts 36°
2026-05-06 12:42 47.15674 -1.60227 84 ft 2 kts 34°
2026-05-06 12:43 47.15663 -1.60238 84 ft 0 kts 35°
2026-05-06 12:43 47.15654 -1.60247 84 ft 2 kts 22°
2026-05-06 12:43 47.15640 -1.60253 84 ft 2 kts
2026-05-06 12:43 47.15624 -1.60253 84 ft 2 kts 348°
2026-05-06 12:44 47.15610 -1.60246 84 ft 2 kts 331°
2026-05-06 12:44 47.15598 -1.60233 84 ft 2 kts 314°
2026-05-06 12:44 47.15590 -1.60218 84 ft 0 kts 299°
2026-05-06 12:44 47.15587 -1.60209 84 ft 0 kts 296°
2026-05-06 12:46 47.15589 -1.60215 84 ft 1 kts 295°
2026-05-06 12:46 47.15593 -1.60236 84 ft 2 kts 285°
2026-05-06 12:47 47.15604 -1.60270 84 ft 4 kts 303°
2026-05-06 12:47 47.15630 -1.60309 84 ft 6 kts 318°
2026-05-06 12:47 47.15667 -1.60356 84 ft 7 kts 319°
2026-05-06 12:47 47.15711 -1.60417 84 ft 9 kts 304°
2026-05-06 12:48 47.15700 -1.60511 84 ft 11 kts 217°
2026-05-06 12:48 47.15627 -1.60570 84 ft 12 kts 206°
2026-05-06 12:48 47.15545 -1.60633 84 ft 14 kts 208°
2026-05-06 12:48 47.15457 -1.60701 85 ft 14 kts 207°
2026-05-06 12:49 47.15368 -1.60769 87 ft 14 kts 207°
2026-05-06 12:49 47.15279 -1.60836 87 ft 14 kts 207°
2026-05-06 12:49 47.15184 -1.60909 87 ft 15 kts 206°
2026-05-06 12:49 47.15083 -1.60985 87 ft 16 kts 207°
2026-05-06 12:50 47.14977 -1.61066 87 ft 17 kts 207°
2026-05-06 12:50 47.14868 -1.61148 87 ft 18 kts 207°
2026-05-06 12:50 47.14752 -1.61237 86 ft 19 kts 207°
2026-05-06 12:50 47.14625 -1.61333 84 ft 21 kts 207°
2026-05-06 12:51 47.14491 -1.61435 81 ft 22 kts 207°
2026-05-06 12:51 47.14346 -1.61546 78 ft 24 kts 207°
2026-05-06 12:51 47.14233 -1.61632 76 ft 13 kts 207°
2026-05-06 12:51 47.14163 -1.61722 74 ft 14 kts 247°
2026-05-06 12:52 47.14144 -1.61869 74 ft 15 kts 284°
2026-05-06 12:52 47.14202 -1.61922 75 ft 10 kts 25°
2026-05-06 12:52 47.14209 -1.61916 75 ft 0 kts 27°
2026-05-06 12:53 47.14307 -1.61842 77 ft 50 kts 27°
2026-05-06 12:53 47.14854 -1.61428 85 ft 125 kts 27°
2026-05-06 12:53 47.15776 -1.60712 332 ft 163 kts 27°
2026-05-06 12:53 47.16690 -1.59818 1176 ft 159 kts 49°
2026-05-06 12:54 47.16933 -1.58306 1967 ft 166 kts 101°
2026-05-06 12:54 47.16233 -1.56903 2563 ft 187 kts 144°
2026-05-06 12:54 47.15054 -1.55955 3195 ft 203 kts 147°
2026-05-06 12:54 47.13772 -1.54902 3817 ft 223 kts 148°
2026-05-06 12:55 47.12365 -1.53762 4596 ft 236 kts 148°
2026-05-06 12:55 47.10897 -1.52572 5305 ft 253 kts 147°
2026-05-06 12:55 47.09359 -1.51235 6071 ft 266 kts 145°
2026-05-06 12:55 47.07767 -1.49777 6852 ft 279 kts 144°
2026-05-06 12:56 47.06156 -1.48127 7764 ft 285 kts 139°
2026-05-06 12:56 47.04674 -1.46245 8730 ft 289 kts 135°
2026-05-06 12:56 47.03178 -1.44235 9680 ft 293 kts 135°
2026-05-06 12:56 47.01692 -1.42220 10566 ft 299 kts 136°
2026-05-06 12:57 47.00103 -1.40135 11134 ft 317 kts 136°
2026-05-06 12:57 46.98413 -1.37940 11645 ft 334 kts 137°
2026-05-06 12:57 46.96647 -1.35650 12378 ft 343 kts 137°
2026-05-06 12:57 46.94861 -1.33332 13255 ft 346 kts 138°
2026-05-06 12:58 46.93061 -1.30995 14080 ft 350 kts 138°
2026-05-06 12:58 46.91232 -1.28624 14889 ft 354 kts 137°
2026-05-06 12:58 46.89387 -1.26234 15676 ft 357 kts 138°
2026-05-06 12:58 46.87525 -1.23824 16414 ft 361 kts 137°
2026-05-06 12:59 46.85638 -1.21378 17093 ft 366 kts 137°
2026-05-06 12:59 46.83738 -1.18915 17758 ft 371 kts 137°
2026-05-06 12:59 46.81784 -1.16380 18420 ft 376 kts 137°
2026-05-06 12:59 46.79846 -1.13863 19090 ft 380 kts 137°
2026-05-06 13:00 46.77859 -1.11287 19761 ft 384 kts 137°
2026-05-06 13:00 46.75846 -1.08680 20386 ft 389 kts 137°
2026-05-06 13:00 46.73840 -1.06085 21006 ft 393 kts 137°
2026-05-06 13:00 46.71780 -1.03424 21630 ft 397 kts 137°
2026-05-06 13:01 46.69692 -1.00730 22226 ft 402 kts 136°
2026-05-06 13:01 46.67590 -0.98020 22790 ft 407 kts 136°
2026-05-06 13:01 46.65469 -0.95290 23354 ft 411 kts 136°
2026-05-06 13:01 46.63345 -0.92558 23914 ft 415 kts 136°
2026-05-06 13:02 46.61163 -0.89751 24483 ft 418 kts 136°
2026-05-06 13:02 46.58981 -0.86952 25040 ft 422 kts 136°
2026-05-06 13:02 46.56788 -0.84134 25590 ft 425 kts 136°
2026-05-06 13:02 46.54580 -0.81287 26109 ft 428 kts 136°
2026-05-06 13:03 46.52368 -0.78433 26600 ft 431 kts 135°
2026-05-06 13:03 46.50104 -0.75518 27098 ft 434 kts 136°
2026-05-06 13:03 46.47844 -0.72610 27562 ft 437 kts 135°
2026-05-06 13:03 46.45596 -0.69673 28020 ft 439 kts 133°
2026-05-06 13:04 46.43535 -0.66428 28461 ft 439 kts 125°
2026-05-06 13:04 46.41767 -0.62875 28886 ft 439 kts 118°
2026-05-06 13:04 46.40275 -0.59032 29295 ft 440 kts 114°
2026-05-06 13:04 46.38874 -0.55053 29710 ft 442 kts 112°
2026-05-06 13:05 46.37493 -0.51073 30111 ft 445 kts 112°
2026-05-06 13:05 46.36103 -0.47087 30489 ft 448 kts 112°
2026-05-06 13:05 46.34697 -0.43083 30856 ft 451 kts 112°
2026-05-06 13:05 46.33262 -0.39025 31192 ft 454 kts 112°
2026-05-06 13:06 46.31826 -0.34971 31528 ft 455 kts 114°
2026-05-06 13:06 46.30381 -0.30908 31973 ft 454 kts 114°
2026-05-06 13:06 46.28954 -0.26903 32394 ft 452 kts 114°
2026-05-06 13:06 46.27497 -0.22828 32749 ft 451 kts 115°
2026-05-06 13:07 46.26068 -0.18834 33092 ft 450 kts 115°
2026-05-06 13:07 46.24637 -0.14847 33383 ft 450 kts 115°
2026-05-06 13:07 46.23190 -0.10818 33687 ft 449 kts 116°
2026-05-06 13:07 46.21764 -0.06855 33975 ft 449 kts 116°
2026-05-06 13:08 46.20318 -0.02845 34267 ft 449 kts 116°
2026-05-06 13:08 46.18954 0.01230 34548 ft 448 kts 113°
2026-05-06 13:08 46.17763 0.05371 34801 ft 448 kts 109°
2026-05-06 13:08 46.16741 0.09607 35072 ft 447 kts 107°
2026-05-06 13:09 46.15819 0.13842 35313 ft 447 kts 106°
2026-05-06 13:09 46.14894 0.18134 35554 ft 447 kts 106°
2026-05-06 13:09 46.13964 0.22436 35803 ft 448 kts 107°
2026-05-06 13:09 46.13030 0.26742 36031 ft 448 kts 107°
2026-05-06 13:10 46.12103 0.30997 36258 ft 449 kts 107°
2026-05-06 13:10 46.11171 0.35263 36487 ft 449 kts 107°
2026-05-06 13:10 46.10219 0.39605 36703 ft 449 kts 107°
2026-05-06 13:10 46.09281 0.43872 36911 ft 450 kts 107°
2026-05-06 13:11 46.08330 0.48190 37119 ft 450 kts 107°
2026-05-06 13:11 46.07386 0.52463 37277 ft 452 kts 108°
2026-05-06 13:11 46.06434 0.56765 37420 ft 453 kts 108°
2026-05-06 13:11 46.05468 0.61120 37551 ft 455 kts 108°
2026-05-06 13:12 46.04508 0.65439 37690 ft 457 kts 108°
2026-05-06 13:12 46.03534 0.69814 37824 ft 458 kts 108°
2026-05-06 13:12 46.02569 0.74145 37959 ft 459 kts 109°
2026-05-06 13:12 46.01597 0.78497 38097 ft 460 kts 109°
2026-05-06 13:13 46.00606 0.82920 38226 ft 460 kts 109°
2026-05-06 13:13 45.99623 0.87301 38354 ft 461 kts 109°
2026-05-06 13:13 45.98640 0.91675 38507 ft 462 kts 109°
2026-05-06 13:13 45.97658 0.96029 38650 ft 463 kts 109°
2026-05-06 13:14 45.96653 1.00481 38783 ft 464 kts 109°
2026-05-06 13:14 45.95656 1.04883 38896 ft 465 kts 109°
2026-05-06 13:14 45.94655 1.09298 38898 ft 465 kts 109°
2026-05-06 13:15 45.92651 1.18118 38906 ft 465 kts 109°
2026-05-06 13:15 45.90641 1.26913 38906 ft 465 kts 109°
2026-05-06 13:16 45.88620 1.35726 38904 ft 466 kts 109°
2026-05-06 13:16 45.86581 1.44589 38894 ft 466 kts 109°
2026-05-06 13:17 45.84549 1.53387 38892 ft 466 kts 109°
2026-05-06 13:17 45.82516 1.62138 38888 ft 465 kts 109°
2026-05-06 13:18 45.80463 1.70951 38884 ft 465 kts 110°
2026-05-06 13:18 45.78407 1.79736 38884 ft 466 kts 110°
2026-05-06 13:19 45.76335 1.88554 38886 ft 466 kts 110°
2026-05-06 13:19 45.74260 1.97354 38879 ft 466 kts 110°
2026-05-06 13:20 45.72180 2.06135 38873 ft 466 kts 110°
2026-05-06 13:20 45.70110 2.14840 38879 ft 466 kts 110°
2026-05-06 13:21 45.68015 2.23618 38878 ft 467 kts 110°
2026-05-06 13:21 45.65900 2.32443 38880 ft 467 kts 110°
2026-05-06 13:22 45.63805 2.41152 38879 ft 467 kts 110°
2026-05-06 13:22 45.61680 2.49947 38883 ft 467 kts 110°
2026-05-06 13:23 45.59563 2.58674 38886 ft 468 kts 111°
2026-05-06 13:23 45.57423 2.67465 38876 ft 467 kts 111°
2026-05-06 13:24 45.55278 2.76232 38873 ft 467 kts 111°
2026-05-06 13:24 45.53030 2.84917 38876 ft 466 kts 115°
2026-05-06 13:25 45.50515 2.93378 38881 ft 467 kts 115°
2026-05-06 13:25 45.47959 3.01905 38890 ft 467 kts 115°
2026-05-06 13:26 45.45398 3.10432 38889 ft 468 kts 115°
2026-05-06 13:26 45.42840 3.18928 38895 ft 468 kts 115°
2026-05-06 13:27 45.40270 3.27436 38896 ft 468 kts 116°
2026-05-06 13:27 45.37697 3.35923 38892 ft 467 kts 116°
2026-05-06 13:28 45.35114 3.44414 38892 ft 467 kts 116°
2026-05-06 13:28 45.32520 3.52914 38886 ft 468 kts 116°
2026-05-06 13:29 45.29933 3.61363 38881 ft 468 kts 116°
2026-05-06 13:29 45.27325 3.69847 38877 ft 468 kts 116°
2026-05-06 13:30 45.25029 3.78473 38879 ft 470 kts 110°
2026-05-06 13:30 45.23202 3.87355 38882 ft 471 kts 109°
2026-05-06 13:31 45.21391 3.96279 38889 ft 471 kts 109°
2026-05-06 13:31 45.19563 4.05180 38898 ft 471 kts 109°
2026-05-06 13:32 45.17723 4.14089 38905 ft 472 kts 109°
2026-05-06 13:32 45.15880 4.22980 38899 ft 472 kts 109°
2026-05-06 13:33 45.14012 4.31916 38903 ft 470 kts 110°
2026-05-06 13:33 45.11671 4.40489 38894 ft 466 kts 118°
2026-05-06 13:34 45.08530 4.48397 38902 ft 463 kts 127°
2026-05-06 13:34 45.04637 4.55594 38910 ft 459 kts 134°
2026-05-06 13:35 45.00429 4.62425 38904 ft 460 kts 134°
2026-05-06 13:35 44.96247 4.69207 38908 ft 459 kts 135°
2026-05-06 13:36 44.92066 4.75988 38908 ft 458 kts 135°
2026-05-06 13:36 44.87881 4.82768 38905 ft 458 kts 135°
2026-05-06 13:37 44.83713 4.89504 38904 ft 458 kts 135°
2026-05-06 13:37 44.79524 4.96258 38909 ft 458 kts 135°
2026-05-06 13:38 44.75348 5.02974 38894 ft 457 kts 135°
2026-05-06 13:38 44.71173 5.09680 38895 ft 457 kts 135°
2026-05-06 13:39 44.66971 5.16409 38893 ft 458 kts 135°
2026-05-06 13:39 44.62779 5.23109 38895 ft 458 kts 135°
2026-05-06 13:40 44.58596 5.29775 38895 ft 458 kts 136°
2026-05-06 13:40 44.54375 5.36485 38899 ft 458 kts 136°
2026-05-06 13:41 44.50186 5.43128 38910 ft 457 kts 136°
2026-05-06 13:41 44.45990 5.49768 38907 ft 458 kts 136°
2026-05-06 13:42 44.41798 5.56384 38902 ft 457 kts 136°
2026-05-06 13:42 44.37699 5.63177 38908 ft 461 kts 131°
2026-05-06 13:43 44.34021 5.70537 38912 ft 462 kts 129°
2026-05-06 13:43 44.30430 5.77962 38910 ft 462 kts 129°
2026-05-06 13:44 44.26855 5.85314 38925 ft 463 kts 129°
2026-05-06 13:44 44.23233 5.92740 38906 ft 462 kts 129°
2026-05-06 13:45 44.19637 6.00092 38913 ft 462 kts 129°
2026-05-06 13:45 44.14207 6.11154 38914 ft 462 kts 129°
2026-05-06 13:46 44.10577 6.18523 38909 ft 464 kts 130°
2026-05-06 13:46 44.06947 6.25876 38905 ft 464 kts 129°
2026-05-06 13:47 44.03296 6.33255 38902 ft 463 kts 130°
2026-05-06 13:47 43.99672 6.40560 38891 ft 463 kts 130°
2026-05-06 13:48 43.96026 6.47891 38896 ft 463 kts 130°
2026-05-06 13:48 43.92370 6.55222 38888 ft 463 kts 130°
2026-05-06 13:49 43.88688 6.62587 38900 ft 463 kts 130°
2026-05-06 13:49 43.85014 6.69920 38883 ft 463 kts 130°
2026-05-06 13:50 43.81352 6.77207 38889 ft 463 kts 130°
2026-05-06 13:50 43.77683 6.84486 38890 ft 464 kts 130°
2026-05-06 13:51 43.73797 6.91533 38895 ft 459 kts 136°
2026-05-06 13:51 43.69416 6.97818 38889 ft 454 kts 143°
2026-05-06 13:52 43.64583 7.03317 38880 ft 448 kts 149°
2026-05-06 13:52 43.59610 7.08478 38872 ft 448 kts 149°
2026-05-06 13:53 43.54653 7.13627 38857 ft 448 kts 149°
2026-05-06 13:53 43.49684 7.18783 38863 ft 448 kts 149°
2026-05-06 13:54 43.44707 7.23940 38873 ft 448 kts 149°
2026-05-06 13:54 43.39763 7.29054 38868 ft 447 kts 149°
2026-05-06 13:55 43.34778 7.34199 38841 ft 448 kts 149°
2026-05-06 13:55 43.29820 7.39304 38817 ft 445 kts 149°
2026-05-06 13:56 43.27348 7.41851 38317 ft 445 kts 149°
2026-05-06 13:56 43.24865 7.44402 37510 ft 450 kts 150°
2026-05-06 13:56 43.22394 7.46937 36733 ft 451 kts 150°
2026-05-06 13:56 43.19892 7.49504 36141 ft 450 kts 150°
2026-05-06 13:57 43.17382 7.52074 35571 ft 449 kts 150°
2026-05-06 13:57 43.14907 7.54607 35001 ft 447 kts 151°
2026-05-06 13:57 43.12406 7.57086 34318 ft 443 kts 154°
2026-05-06 13:57 43.09791 7.59188 33439 ft 432 kts 160°
2026-05-06 13:58 43.07075 7.60854 32116 ft 428 kts 166°
2026-05-06 13:58 43.04283 7.62271 30562 ft 431 kts 167°
2026-05-06 13:58 43.01509 7.63638 29324 ft 426 kts 167°
2026-05-06 13:58 42.98725 7.65009 28347 ft 416 kts 167°
2026-05-06 13:59 42.96030 7.66341 27291 ft 409 kts 167°
2026-05-06 13:59 42.93408 7.67634 26202 ft 407 kts 167°
2026-05-06 13:59 42.90756 7.68939 25424 ft 403 kts 167°
2026-05-06 13:59 42.88148 7.70229 24757 ft 398 kts 167°
2026-05-06 14:00 42.85535 7.71519 24078 ft 394 kts 167°
2026-05-06 14:00 42.82964 7.72790 23418 ft 390 kts 167°
2026-05-06 14:00 42.80444 7.74033 22736 ft 387 kts 167°
2026-05-06 14:00 42.77920 7.75278 22060 ft 385 kts 167°
2026-05-06 14:01 42.75413 7.76513 21419 ft 382 kts 167°
2026-05-06 14:01 42.72924 7.77738 20766 ft 379 kts 167°
2026-05-06 14:01 42.70457 7.78952 20133 ft 377 kts 166°
2026-05-06 14:01 42.68013 7.80153 19524 ft 374 kts 166°
2026-05-06 14:02 42.65556 7.81361 18922 ft 371 kts 166°
2026-05-06 14:02 42.63148 7.82542 18312 ft 369 kts 166°
2026-05-06 14:02 42.60751 7.83716 17730 ft 367 kts 166°
2026-05-06 14:02 42.58335 7.84898 17135 ft 365 kts 166°
2026-05-06 14:03 42.55960 7.86058 16562 ft 363 kts 166°
2026-05-06 14:03 42.53593 7.87217 15995 ft 361 kts 165°
2026-05-06 14:03 42.51256 7.88359 15441 ft 360 kts 165°
2026-05-06 14:03 42.48898 7.89511 14869 ft 358 kts 165°
2026-05-06 14:04 42.46568 7.90648 14307 ft 357 kts 165°
2026-05-06 14:04 42.44236 7.91786 13785 ft 354 kts 165°
2026-05-06 14:04 42.41946 7.92903 13520 ft 343 kts 165°
2026-05-06 14:04 42.39741 7.93980 13272 ft 336 kts 165°
2026-05-06 14:05 42.37543 7.95050 13023 ft 334 kts 165°
2026-05-06 14:05 42.35359 7.96109 12775 ft 334 kts 165°
2026-05-06 14:05 42.33198 7.97245 12531 ft 335 kts 160°
2026-05-06 14:05 42.31132 7.98745 12282 ft 338 kts 152°
2026-05-06 14:06 42.29234 8.00600 12037 ft 340 kts 144°
2026-05-06 14:06 42.27449 8.02724 11774 ft 340 kts 142°
2026-05-06 14:06 42.25695 8.04891 11526 ft 339 kts 141°
2026-05-06 14:06 42.23952 8.07055 11277 ft 338 kts 141°
2026-05-06 14:07 42.22230 8.09184 11029 ft 337 kts 141°
2026-05-06 14:07 42.20488 8.11328 10776 ft 335 kts 141°
2026-05-06 14:07 42.18790 8.13415 10487 ft 330 kts 141°
2026-05-06 14:07 42.17091 8.15496 10159 ft 323 kts 141°
2026-05-06 14:08 42.15448 8.17508 9838 ft 316 kts 141°
2026-05-06 14:08 42.13858 8.19452 9668 ft 304 kts 141°
2026-05-06 14:08 42.12313 8.21339 9534 ft 295 kts 141°
2026-05-06 14:08 42.10783 8.23202 9414 ft 295 kts 142°
2026-05-06 14:09 42.09251 8.25063 9274 ft 295 kts 141°
2026-05-06 14:09 42.07738 8.26901 9131 ft 294 kts 141°
2026-05-06 14:09 42.06210 8.28760 9023 ft 293 kts 141°
2026-05-06 14:09 42.04700 8.30594 8899 ft 293 kts 141°
2026-05-06 14:10 42.03193 8.32425 8776 ft 291 kts 141°
2026-05-06 14:10 42.01680 8.34260 8645 ft 291 kts 141°
2026-05-06 14:10 42.00186 8.36075 8524 ft 291 kts 141°
2026-05-06 14:10 41.98685 8.37893 8389 ft 290 kts 141°
2026-05-06 14:11 41.97189 8.39706 8241 ft 289 kts 141°
2026-05-06 14:11 41.95626 8.41344 8112 ft 284 kts 153°
2026-05-06 14:11 41.93786 8.42275 7984 ft 279 kts 172°
2026-05-06 14:11 41.91857 8.42425 7872 ft 275 kts 185°
2026-05-06 14:12 41.89944 8.42279 7757 ft 274 kts 186°
2026-05-06 14:12 41.88045 8.42104 7640 ft 274 kts 186°
2026-05-06 14:12 41.86143 8.41935 7509 ft 273 kts 186°
2026-05-06 14:12 41.84243 8.41775 7376 ft 273 kts 186°
2026-05-06 14:13 41.82345 8.41624 7255 ft 273 kts 186°
2026-05-06 14:13 41.80447 8.41478 7142 ft 273 kts 185°
2026-05-06 14:13 41.78546 8.41334 7019 ft 272 kts 185°
2026-05-06 14:13 41.76646 8.41189 6894 ft 272 kts 185°
2026-05-06 14:14 41.74772 8.41049 6780 ft 272 kts 185°
2026-05-06 14:14 41.72871 8.40906 6655 ft 272 kts 185°
2026-05-06 14:14 41.70967 8.40764 6521 ft 272 kts 185°
2026-05-06 14:14 41.69083 8.40625 6398 ft 272 kts 185°
2026-05-06 14:15 41.67200 8.40498 6274 ft 272 kts 182°
2026-05-06 14:15 41.65348 8.41024 6150 ft 277 kts 153°
2026-05-06 14:15 41.63893 8.42745 6023 ft 281 kts 124°
2026-05-06 14:15 41.62954 8.45006 5906 ft 281 kts 118°
2026-05-06 14:16 41.62300 8.47456 5762 ft 281 kts 95°
2026-05-06 14:16 41.62580 8.50026 5620 ft 280 kts 65°
2026-05-06 14:16 41.63608 8.52187 5502 ft 279 kts 52°
2026-05-06 14:16 41.64769 8.54263 5375 ft 279 kts 52°
2026-05-06 14:17 41.65932 8.56362 5261 ft 278 kts 51°
2026-05-06 14:17 41.67382 8.58015 5128 ft 275 kts 22°
2026-05-06 14:17 41.69206 8.58654 5006 ft 272 kts
2026-05-06 14:17 41.71090 8.58957 4881 ft 271 kts
2026-05-06 14:18 41.72967 8.59258 4764 ft 271 kts
2026-05-06 14:18 41.74838 8.59610 4649 ft 270 kts
2026-05-06 14:18 41.76704 8.60008 4514 ft 270 kts
2026-05-06 14:18 41.78539 8.60430 4398 ft 269 kts
2026-05-06 14:19 41.80395 8.60872 4265 ft 269 kts
2026-05-06 14:19 41.82224 8.61317 4142 ft 268 kts
2026-05-06 14:19 41.84072 8.61771 4017 ft 267 kts
2026-05-06 14:19 41.85903 8.62223 3889 ft 266 kts
2026-05-06 14:20 41.87724 8.62676 3764 ft 266 kts
2026-05-06 14:20 41.89523 8.63124 3592 ft 256 kts
2026-05-06 14:20 41.91205 8.63545 3469 ft 240 kts
2026-05-06 14:20 41.92805 8.63943 3336 ft 226 kts
2026-05-06 14:21 41.94309 8.64320 3205 ft 214 kts
2026-05-06 14:21 41.95774 8.64686 3083 ft 212 kts
2026-05-06 14:21 41.97229 8.65048 2982 ft 211 kts
2026-05-06 14:21 41.98687 8.65410 2978 ft 211 kts 10°
2026-05-06 14:22 42.00042 8.66135 2919 ft 214 kts 41°
2026-05-06 14:22 42.00731 8.67859 2816 ft 214 kts 86°
2026-05-06 14:22 42.00532 8.69787 2925 ft 204 kts 104°
2026-05-06 14:22 42.00225 8.71550 2936 ft 185 kts 103°
2026-05-06 14:23 41.99967 8.73176 2907 ft 168 kts 102°
2026-05-06 14:23 41.99746 8.74695 2672 ft 161 kts 101°
2026-05-06 14:23 41.99549 8.76111 2420 ft 149 kts 101°
2026-05-06 14:23 41.99371 8.77436 2176 ft 138 kts 100°
2026-05-06 14:24 41.99205 8.78684 1969 ft 136 kts 100°
2026-05-06 14:24 41.99042 8.79916 1771 ft 135 kts 100°
2026-05-06 14:24 41.98819 8.81134 1586 ft 134 kts 117°
2026-05-06 14:24 41.98245 8.82102 1399 ft 132 kts 144°
2026-05-06 14:25 41.97452 8.82672 1242 ft 128 kts 166°
2026-05-06 14:25 41.96561 8.82737 1003 ft 126 kts 192°
2026-05-06 14:25 41.95766 8.82323 763 ft 122 kts 207°
2026-05-06 14:25 41.94994 8.81847 563 ft 120 kts 204°
2026-05-06 14:26 41.94231 8.81385 412 ft 120 kts 206°
2026-05-06 14:26 41.93475 8.80916 187 ft 118 kts 204°
2026-05-06 14:26 41.92735 8.80459 36 ft 115 kts 205°
2026-05-06 14:26 41.92105 8.80066 24 ft 76 kts 205°
2026-05-06 14:27 41.91781 8.79866 23 ft 26 kts 206°
2026-05-06 14:27 41.91636 8.79780 23 ft 20 kts 203°
2026-05-06 14:27 41.91508 8.79695 23 ft 20 kts 206°
2026-05-06 14:27 41.91382 8.79617 23 ft 19 kts 206°
2026-05-06 14:28 41.91261 8.79533 23 ft 19 kts 225°
2026-05-06 14:28 41.91285 8.79407 23 ft 0 kts 333°